CZ-6A DEB, 60815

Orbit data source: Space-Track

CZ-6A DEB, 60815 is space debris in LEO originally from a launch on Tue, 06 Aug 2024 UTC launched from the Taiyaun Space Center, China (TSC). Debris objects in space refer to the collection of defunct objects orbiting the Earth. Examples of debris include non-operational satellites, rocket bodies, and fragments generated from explosions, collisions, or faulty payload assembly.

Loading next visibility...
Identifier
60815, 2024-140GS
Orbit
LEO
Country
Flag of CNCN / PRC
Related business
Manufacturer
SAST
Mission
Spacecraft
Bus & Motor
Unknown
Mass
Unknown
Launch date (UTC)
2024-08-06 (2 years ago)
Launch vehicle
Unknown
Launch site
Taiyaun Space Center, China (TSC)
Object type
Payload
Rocket body
Debris
Shape & HBR
Unknown shape, 0.2 m
Radar Cross Section
Medium (>0.1 m² and <1 m²)

Expand to show TLE details & history
Last TLE update: 14 hours ago

TLE from 14 hours ago
0 CZ-6A DEB
1 60815U 24140GS  26171.26716295 -.00000093  00000-0 -11805-3 0  9998
2 60815  88.5510 256.1145 0592106 134.9086 230.1710 13.16512389 89029
Epoch: 2026-06-20T06:24Z
TLE epoch observation values (Epoch: 2026-06-20T06:24:42.878Z)
Latitude
-0.00006°
Longitude
-108.5484°
Altitude
1,503.178 km
Speed
6.97 km/s
True Right ascension
17h 04m 27s
True Declination
0° 00' 00"
Sunlit
Object was in full shadow at epoch
Visualization orbit readout
Latitude
Unknown
Longitude
Unknown
Altitude
Unknown
Speed
Unknown
Apparent Right ascension
Unknown
Apparent Declination
Unknown
Sunlit
N/A
Visualization observer readout
Local Sidereal Time
07:23:49
Azimuth
Unknown
Elevation
Unknown
Doppler factor
Unknown
Orbital elements
Apogee altitude
1,643.579 km
Perigee altitude
746.74 km
Semi-major axis
7,573.297 km
Eccentricity
0.05921
Inclination
88.551°
RAAN
256.1145°
Arg. of periapsis
134.9086°
True anomaly
225.20279°
Mean anomaly
230.171°
Eccentric anomaly
227.66325°
Mean motion
3.29318 °/min
Orbital period
109.32 mins
BSTAR
-0.00011805
Loading maneuver chart data...
Computing Atmospheric mass density...
Loading historical data...
Loading historical data...
Loading historical data...
Loading historical data...
Loading historical data...
Loading historical data...
Loading historical data...

Documentation

Showing up to 5 results
|